| time (UTC) | temp F | wind direction | speed MPH | gust MPH | rain 1hr in | rain 24hr in | rain mn in | humidity % | barometer mb |
| 20260503200038 | 68 | 305 | 2.0 | 10.0 | 0.00 | 0.00 | 0.00 | 50 | 1004.4 |
| 20260503194517 | 69 | 315 | 4.0 | 10.0 | 0.00 | 0.00 | 0.00 | 50 | 1004.6 |
| 20260503193005 | 68 | 277 | 3.0 | 8.0 | 0.00 | 0.00 | 0.00 | 51 | 1004.8 |
| 20260503191604 | 68 | 215 | 4.0 | 11.0 | 0.00 | 0.00 | 0.00 | 50 | 1004.9 |
| 20260503190053 | 67 | 288 | 5.0 | 11.0 | 0.00 | 0.00 | 0.00 | 51 | 1005.0 |
| 20260503184557 | 67 | 255 | 5.0 | 10.0 | 0.00 | 0.00 | 0.00 | 50 | 1005.1 |
| 20260503183014 | 67 | 293 | 3.0 | 17.0 | 0.00 | 0.00 | 0.00 | 52 | 1005.2 |
| 20260503181504 | 66 | 267 | 2.0 | 13.0 | 0.00 | 0.00 | 0.00 | 53 | 1005.5 |
| 20260503180104 | 66 | 285 | 5.0 | 12.0 | 0.00 | 0.00 | 0.00 | 51 | 1005.7 |
| 20260503174552 | 65 | 231 | 5.0 | 12.0 | 0.00 | 0.00 | 0.00 | 52 | 1005.9 |
| 20260503173034 | 65 | 217 | 4.0 | 14.0 | 0.00 | 0.00 | 0.00 | 50 | 1005.9 |
| 20260503171519 | 65 | 247 | 5.0 | 15.0 | 0.00 | 0.00 | 0.00 | 51 | 1006.1 |
| 20260503140103 | 59 | 142 | 6.0 | 20.0 | 0.00 | 0.00 | 0.00 | 62 | 1007.8 |
| 20260503100109 | 51 | 166 | 3.0 | 7.0 | 0.00 | 0.00 | 0.00 | 59 | 1009.7 |
| 20260503081552 | 51 | 193 | 0.0 | 6.0 | 0.00 | 0.00 | 0.00 | 59 | 1010.6 |
| 20260503071613 | 50 | 227 | 1.0 | 6.0 | 0.00 | 0.00 | 0.00 | 57 | 1011.0 |
| 20260503054609 | 50 | 208 | 0.0 | 4.0 | 0.00 | 0.00 | 0.00 | 58 | 1012.0 |
| 20260503053053 | 51 | 188 | 1.0 | 5.0 | 0.00 | 0.00 | 0.00 | 57 | 1012.1 |
| 20260503051542 | 51 | 210 | 2.0 | 7.0 | 0.00 | 0.00 | 0.00 | 56 | 1012.1 |
| 20260503050030 | 52 | 205 | 2.0 | 10.0 | 0.00 | 0.00 | 0.00 | 55 | 1012.2 |
| 20260503044540 | 52 | 219 | 4.0 | 9.0 | 0.00 | 0.00 | 0.00 | 55 | 1012.3 |
| 20260503043108 | 53 | 204 | 3.0 | 11.0 | 0.00 | 0.00 | 0.00 | 54 | 1012.3 |
| 20260503041601 | 53 | 210 | 2.0 | 9.0 | 0.00 | 0.00 | 0.00 | 54 | 1012.6 |
| 20260503040045 | 53 | 180 | 3.0 | 6.0 | 0.00 | 0.00 | 0.00 | 55 | 1012.7 |
| 20260503034532 | 52 | 209 | 1.0 | 4.0 | 0.00 | 0.00 | 0.00 | 56 | 1013.0 |
| 20260503033021 | 52 | 175 | 0.0 | 2.0 | 0.00 | 0.00 | 0.00 | 57 | 1013.1 |
| 20260503031614 | 52 | 208 | 1.0 | 3.0 | 0.00 | 0.00 | 0.00 | 58 | 1013.4 |
| 20260503024547 | 51 | 146 | 0.0 | 2.0 | 0.00 | 0.00 | 0.00 | 62 | 1013.6 |
| 20260503023035 | 50 | 153 | 0.0 | 1.0 | 0.00 | 0.00 | 0.00 | 65 | 1013.6 |
| 20260503021524 | 50 | 151 | 0.0 | 1.0 | 0.00 | 0.00 | 0.00 | 62 | 1013.6 |
| 20260503020008 | 51 | 187 | 0.0 | 1.0 | 0.00 | 0.00 | 0.00 | 62 | 1013.6 |
| 20260503014609 | 51 | 217 | 0.0 | 1.0 | 0.00 | 0.00 | 0.00 | 58 | 1013.7 |
| 20260503013102 | 52 | 217 | 0.0 | 0.0 | 0.00 | 0.00 | 0.00 | 55 | 1013.6 |
| 20260503011619 | 54 | 217 | 0.0 | 0.0 | 0.00 | 0.00 | 0.00 | 50 | 1013.6 |
| 20260503010055 | 55 | 217 | 0.0 | 1.0 | 0.00 | 0.00 | 0.00 | 50 | 1013.7 |
| 20260503004546 | 56 | 257 | 0.0 | 2.0 | 0.00 | 0.00 | 0.00 | 49 | 1013.7 |
| 20260503003030 | 57 | 254 | 2.0 | 9.0 | 0.00 | 0.00 | 0.00 | 46 | 1013.7 |
| 20260503001509 | 58 | 251 | 3.0 | 7.0 | 0.00 | 0.00 | 0.00 | 45 | 1013.9 |
| 20260503000123 | 60 | 294 | 2.0 | 8.0 | 0.00 | 0.00 | 0.00 | 43 | 1013.9 |
| 20260502234605 | 60 | 286 | 3.0 | 7.0 | 0.00 | 0.00 | 0.00 | 41 | 1013.8 |
| 20260502233048 | 60 | 243 | 3.0 | 11.0 | 0.00 | 0.00 | 0.00 | 38 | 1014.0 |
| 20260502231539 | 60 | 267 | 3.0 | 11.0 | 0.00 | 0.00 | 0.00 | 39 | 1014.1 |
| 20260502230027 | 60 | 308 | 3.0 | 11.0 | 0.00 | 0.00 | 0.00 | 40 | 1014.4 |
| 20260502224519 | 60 | 294 | 2.0 | 11.0 | 0.00 | 0.00 | 0.00 | 42 | 1014.7 |
| 20260502223107 | 60 | 262 | 4.0 | 11.0 | 0.00 | 0.00 | 0.00 | 40 | 1014.7 |
| 20260502221613 | 60 | 261 | 5.0 | 13.0 | 0.00 | 0.00 | 0.00 | 40 | 1014.8 |
| 20260502220056 | 60 | 288 | 4.0 | 10.0 | 0.00 | 0.00 | 0.00 | 41 | 1014.8 |
| 20260502214537 | 60 | 294 | 4.0 | 10.0 | 0.00 | 0.00 | 0.00 | 39 | 1015.0 |
| 20260502213023 | 60 | 264 | 6.0 | 15.0 | 0.00 | 0.00 | 0.00 | 41 | 1015.1 |
| 20260502211611 | 60 | 247 | 6.0 | 11.0 | 0.00 | 0.00 | 0.00 | 41 | 1015.3 |
| 20260502210131 | 59 | 252 | 4.0 | 8.0 | 0.00 | 0.00 | 0.00 | 41 | 1015.5 |
| 20260502204550 | 60 | 263 | 3.0 | 9.0 | 0.00 | 0.00 | 0.00 | 44 | 1015.6 |
| 20260502203038 | 58 | 217 | 2.0 | 9.0 | 0.00 | 0.00 | 0.00 | 45 | 1015.8 |
| 20260502201527 | 58 | 307 | 5.0 | 11.0 | 0.00 | 0.00 | 0.00 | 41 | 1016.0 |